Location: Caramacate
(10.0289°N, 66.7587°W)
Time: 21:59:20
(UTC+00:00)

Cosmos 2218 Rocket - Pass Details

Date: 05 August 2024
Orbit: 956 x 1005 km, 82.9° (Epoch: 07 September)

Event Time Altitude Azimuth Distance (km) Brightness Sun altitude
Rises 23:30:03 0° 178° (S) 3,627 6.8 -10.5°
Reaches altitude 10° 23:32:33 10° 175° (S) 2,683 6.1 -11.1°
Maximum altitude 23:38:38 69° 92° (E) 1,022 3.9 -12.5°
Drops below altitude 10° 23:44:47 10° 10° (N) 2,705 6.4 -13.9°
Sets 23:47:18 0° 8° (N) 3,659 7.2 -14.5°
